Powrót do katalogu

STARLINK-30560

AktywnyŁącznośćVLEO
NORAD 58038·PAYLOAD·🇺🇸 United States

Wystrzelony Oct 9, 2023 z Vandenberg Space Force Base

Loading…

Następne Przeloty (najbliższe 24 godziny)

TLE

ŚwieżeSource: CelesTrak SupGP

Epoka: Sep 15, 2026, 03:24 UTC

1 58038C 23156L   26258.14215278 -.00018216  00000+0 -53804-3 0  2584
2 58038  53.1573 274.6223 0001151  92.8435 314.0178 15.34409751    19

Śledź STARLINK-30560 w czasie rzeczywistym z AllMySat

Download on the App Store